TimeCDT,TemperatureF,Dew PointF,Humidity,Sea Level PressureIn,VisibilityMPH,Wind Direction,Wind SpeedMPH,Gust SpeedMPH,PrecipitationIn,Events,Conditions,WindDirDegrees,DateUTC
12:08 AM,50.0,48.2,94,29.93,1.5,Calm,Calm,-,N/A,,Overcast,0,2013-03-31 05:08:00
12:53 AM,50.0,48.0,93,29.92,1.2,Calm,Calm,-,N/A,,Overcast,0,2013-03-31 05:53:00
1:15 AM,50.0,48.2,94,29.92,2.0,Calm,Calm,-,N/A,,Overcast,0,2013-03-31 06:15:00
1:36 AM,50.0,48.2,94,29.91,1.5,Calm,Calm,-,N/A,,Overcast,0,2013-03-31 06:36:00
1:53 AM,48.9,48.0,97,29.91,1.0,Calm,Calm,-,N/A,,Overcast,0,2013-03-31 06:53:00
2:07 AM,50.0,48.2,94,29.90,1.5,Calm,Calm,-,N/A,,Overcast,0,2013-03-31 07:07:00
2:45 AM,50.0,48.2,94,29.90,2.0,Calm,Calm,-,N/A,,Overcast,0,2013-03-31 07:45:00
2:53 AM,50.0,48.0,93,29.90,2.0,Calm,Calm,-,N/A,,Overcast,0,2013-03-31 07:53:00
3:09 AM,50.0,48.2,94,29.89,1.8,Calm,Calm,-,N/A,,Overcast,0,2013-03-31 08:09:00
3:16 AM,50.0,48.2,94,29.88,2.0,Calm,Calm,-,N/A,,Overcast,0,2013-03-31 08:16:00
3:26 AM,50.0,48.2,94,29.87,1.5,Calm,Calm,-,N/A,,Overcast,0,2013-03-31 08:26:00
3:36 AM,48.2,48.2,100,29.88,0.5,Calm,Calm,-,N/A,Fog,Fog,0,2013-03-31 08:36:00
3:40 AM,48.2,48.2,100,29.88,0.2,Calm,Calm,-,N/A,Fog,Fog,0,2013-03-31 08:40:00
3:51 AM,48.2,48.2,100,29.87,0.5,Calm,Calm,-,N/A,Fog,Fog,0,2013-03-31 08:51:00
3:53 AM,48.9,48.0,97,29.87,0.5,Calm,Calm,-,N/A,Fog,Fog,0,2013-03-31 08:53:00
4:53 AM,48.9,48.0,97,29.88,1.2,Calm,Calm,-,N/A,,Overcast,0,2013-03-31 09:53:00
5:07 AM,48.2,48.2,100,29.88,1.0,Calm,Calm,-,N/A,,Overcast,0,2013-03-31 10:07:00
5:53 AM,50.0,48.9,96,29.89,2.0,West,4.6,-,N/A,,Overcast,260,2013-03-31 10:53:00
6:29 AM,50.0,48.2,94,29.90,3.0,West,3.5,-,N/A,,Overcast,270,2013-03-31 11:29:00
6:36 AM,50.0,48.2,94,29.90,2.5,Calm,Calm,-,N/A,,Overcast,0,2013-03-31 11:36:00
6:43 AM,50.0,48.2,94,29.90,2.5,Calm,Calm,-,N/A,,Overcast,0,2013-03-31 11:43:00
6:53 AM,50.0,48.9,96,29.91,2.0,Calm,Calm,-,N/A,,Overcast,0,2013-03-31 11:53:00
7:03 AM,50.0,48.2,94,29.91,1.2,Calm,Calm,-,N/A,,Overcast,0,2013-03-31 12:03:00
7:21 AM,50.0,48.2,94,29.92,0.8,Calm,Calm,-,N/A,,Overcast,0,2013-03-31 12:21:00
7:45 AM,50.0,48.2,94,29.93,1.2,Calm,Calm,-,N/A,,Overcast,0,2013-03-31 12:45:00
7:53 AM,50.0,48.9,96,29.93,1.2,Calm,Calm,-,N/A,,Overcast,0,2013-03-31 12:53:00
8:30 AM,50.0,48.2,94,29.95,2.0,WSW,3.5,-,N/A,,Overcast,250,2013-03-31 13:30:00
8:44 AM,51.8,48.2,88,29.94,3.0,West,3.5,-,N/A,,Overcast,280,2013-03-31 13:44:00
8:53 AM,51.1,48.9,92,29.94,4.0,WNW,3.5,-,N/A,,Overcast,290,2013-03-31 13:53:00
9:18 AM,51.8,50.0,94,29.94,4.0,Calm,Calm,-,N/A,,Mostly Cloudy,0,2013-03-31 14:18:00
9:44 AM,53.6,48.2,82,29.94,6.0,Calm,Calm,-,N/A,,Mostly Cloudy,0,2013-03-31 14:44:00
9:48 AM,53.6,48.2,82,29.94,6.0,Calm,Calm,-,N/A,,Mostly Cloudy,0,2013-03-31 14:48:00
9:53 AM,53.1,48.9,86,29.95,6.0,Calm,Calm,-,N/A,,Mostly Cloudy,0,2013-03-31 14:53:00
10:00 AM,53.6,50.0,88,29.95,6.0,Calm,Calm,-,N/A,,Mostly Cloudy,0,2013-03-31 15:00:00
10:35 AM,53.6,48.2,82,29.96,8.0,Calm,Calm,-,0.00,Rain,Light Rain,0,2013-03-31 15:35:00
10:53 AM,54.0,50.0,86,29.95,6.0,South,8.1,-,0.00,Rain,Light Rain,190,2013-03-31 15:53:00
11:25 AM,53.6,50.0,88,29.93,8.0,South,3.5,-,0.00,,Overcast,190,2013-03-31 16:25:00
11:53 AM,55.9,51.1,84,29.91,10.0,South,5.8,-,0.00,,Scattered Clouds,170,2013-03-31 16:53:00
12:03 PM,55.4,50.0,82,29.91,10.0,SSE,4.6,-,N/A,,Mostly Cloudy,150,2013-03-31 17:03:00
12:15 PM,57.2,51.8,82,29.91,10.0,SSE,4.6,-,N/A,,Scattered Clouds,150,2013-03-31 17:15:00
12:51 PM,57.2,50.0,77,29.92,10.0,SW,4.6,-,N/A,,Mostly Cloudy,230,2013-03-31 17:51:00
12:53 PM,57.9,50.0,75,29.92,10.0,SW,6.9,-,N/A,,Mostly Cloudy,230,2013-03-31 17:53:00
1:10 PM,59.0,51.8,77,29.91,10.0,WSW,5.8,-,N/A,,Scattered Clouds,240,2013-03-31 18:10:00
1:53 PM,60.1,52.0,75,29.91,10.0,West,8.1,-,N/A,,Partly Cloudy,260,2013-03-31 18:53:00
2:53 PM,61.0,48.9,64,29.89,10.0,West,5.8,-,N/A,,Clear,260,2013-03-31 19:53:00
3:53 PM,63.0,46.9,56,29.89,10.0,WSW,6.9,-,N/A,,Clear,240,2013-03-31 20:53:00
4:53 PM,64.0,46.9,54,29.87,10.0,SSW,8.1,-,N/A,,Clear,200,2013-03-31 21:53:00
5:53 PM,64.0,48.9,58,29.86,10.0,South,8.1,-,N/A,,Clear,170,2013-03-31 22:53:00
6:53 PM,60.1,48.9,67,29.87,10.0,South,6.9,-,N/A,,Clear,170,2013-03-31 23:53:00
7:53 PM,57.0,48.0,72,29.88,10.0,SSW,8.1,-,N/A,,Clear,210,2013-04-01 00:53:00
8:53 PM,55.0,46.9,74,29.90,10.0,SSW,5.8,-,N/A,,Clear,200,2013-04-01 01:53:00
9:53 PM,54.0,46.9,77,29.90,10.0,SSW,3.5,-,N/A,,Clear,210,2013-04-01 02:53:00
10:53 PM,51.1,46.0,83,29.91,10.0,Calm,Calm,-,N/A,,Clear,0,2013-04-01 03:53:00
11:53 PM,48.2,44.6,87,29.91,10.0,Calm,Calm,-,N/A,,Clear,0,2013-04-01 04:53:00